This is the latest recevied weather packets stored in our database for station/object KD8BMB. If no packets are shown the sender has not sent any weather packets the latest 10 day(s).
| Time | Temp. | Humidity | Pressure | Rain* | Wind** | Luminosity | Snow |
|---|---|---|---|---|---|---|---|
| 1777995683 | 10° C | 82% | 1006.6 hPa | 0 mm | - | 144 W/m² | - |
| 1777995381 | 10° C | 81% | 1006.6 hPa | 0 mm | - | 146 W/m² | - |
| 1777995078 | 10° C | 81% | 1006.9 hPa | 0 mm | - | 143 W/m² | - |
| 1777994775 | 10° C | 83% | 1006.5 hPa | 0 mm | - | 296 W/m² | - |
| 1777994471 | 10° C | 85% | 1006.7 hPa | 0 mm | - | 264 W/m² | - |
| 1777994166 | 9.44° C | 85% | 1006.3 hPa | 0 mm | - | 144 W/m² | - |
| 1777993864 | 9.44° C | 87% | 1006.4 hPa | 0 mm | - | 100 W/m² | - |
| 1777993560 | 9.44° C | 87% | 1006.5 hPa | 0 mm | - | 100 W/m² | - |
| 1777993256 | 9.44° C | 87% | 1006 hPa | 0 mm | - | 87 W/m² | - |
| 1777992952 | 9.44° C | 86% | 1006.1 hPa | 0 mm | - | 96 W/m² | - |
| 1777992651 | 9.44° C | 86% | 1006.1 hPa | 0 mm | - | 104 W/m² | - |
| 1777992348 | 9.44° C | 85% | 1005.9 hPa | 0 mm | - | 65 W/m² | - |
| 1777992045 | 9.44° C | 84% | 1005.7 hPa | 0 mm | - | 96 W/m² | - |
| 1777991743 | 9.44° C | 87% | 1005.4 hPa | 1.27 mm | - | 162 W/m² | - |
| 1777991440 | 9.44° C | 87% | 1005.3 hPa | 1.27 mm | - | 154 W/m² | - |
| 1777991137 | 9.44° C | 84% | 1005.8 hPa | 0 mm | - | 88 W/m² | - |
| 1777990834 | 9.44° C | 82% | 1006.2 hPa | 0 mm | - | 52 W/m² | - |
| 1777990532 | 9.44° C | 79% | 1006.2 hPa | 0 mm | - | 37 W/m² | - |
| 1777989925 | 9.44° C | 76% | 1006 hPa | 0 mm | - | 39 W/m² | - |
| 1777989622 | 9.44° C | 77% | 1005.9 hPa | 0 mm | - | 44 W/m² | - |
| 1777989318 | 9.44° C | 80% | 1005.6 hPa | 0 mm | - | 67 W/m² | - |
| 1777989015 | 9.44° C | 79% | 1005.7 hPa | 0 mm | - | 83 W/m² | - |
| 1777988711 | 9.44° C | 79% | 1005.9 hPa | 0 mm | - | 64 W/m² | - |
| 1777988408 | 9.44° C | 80% | 1005.8 hPa | 0 mm | - | 65 W/m² | - |
| 1777988105 | 9.44° C | 74% | 1005.3 hPa | 0 mm | - | 51 W/m² | - |
* Rain latest hour (hover to see other rain measurements)
** Current wind speed in m/s (hover to see current wind gust speed)